Location: Clinton NY
(43.0598°N, 75.3602°W)
Time: 04:15:53
(UTC-04:00)

Amateur Radio Satellites - All Passes

Search period start: 28 July 2014 03:45
Search period end: 29 July 2014 03:45
Location: Clinton NY, 43.0598°N, 75.3602°W

Satellite Date Start Highest point End Downlink Frequencies (MHz)
Time Altitude Azimuth
AO-Echo 28 Jul 03:46:50 03:51:49 55° 288° (WNW) 03:56:38 ?
Oscar 16 28 Jul 03:49:53 03:54:08 27° 295° (WNW) 03:58:24 437.025 USB, Beacon 2401.1428
AO-7 28 Jul 03:53:01 03:57:50 16° 88° (E) 04:02:37 29.400 - 29.500 MHz
OPAL 28 Jul 03:58:00 04:02:55 77° 72° (ENE) 04:07:53 ?
Uosat F 28 Jul 04:05:45 04:08:22 14° 90° (E) 04:10:57 435.120 FM
ITAMSAT 1 28 Jul 04:07:58 04:12:46 39° 292° (WNW) 04:17:32 435.822 SSB
TMSAT-1 28 Jul 04:18:53 04:24:13 85° 104° (ESE) 04:29:31 436.925 FM
AO-27 28 Jul 04:27:15 04:31:34 27° 295° (WNW) 04:35:51 436.795 MHz FM
Uribyol 2 28 Jul 04:28:10 04:32:21 26° 296° (WNW) 04:36:32 436.500 FM
Lituanica SAT-1 28 Jul 04:32:37 04:34:06 48° 32° (NNE) 04:35:34 437.275 MHz beacon
Oscar 10/S400 28 Jul 04:34:45 05:46:47 46° 223° (SW) 11:35:40 145.825 - 145.975 CW/USB, Beacon 145.810 USB
ISS 28 Jul 04:35:06 04:37:48 22° 12° (NNE) 04:40:31 145.800 FM
Gurwin Techsat 1B 28 Jul 04:42:48 04:47:50 45° 291° (WNW) 04:52:51 435.225 FM
JAS-1B 28 Jul 04:57:02 05:06:01 48° 297° (WNW) 05:13:52 435.800 - 435.900 CW/SSB
KITSAT 1 28 Jul 05:14:23 05:19:26 18° 101° (E) 05:24:29 435.175 FM
MaSat-1 28 Jul 05:37:03 05:40:21 16° 44° (NE) 05:43:37 437.345 MHz
OPAL 28 Jul 05:40:16 05:42:22 13° 269° (W) 05:44:29 ?
Uosat F 28 Jul 05:42:39 05:47:40 70° 287° (WNW) 05:52:37 435.120 FM
AO-7 28 Jul 05:43:26 05:51:50 82° 107° (ESE) 06:00:08 29.400 - 29.500 MHz
TMSAT-1 28 Jul 06:00:41 06:03:25 14° 302° (WNW) 06:06:09 436.925 FM
ISS 28 Jul 06:11:36 06:14:58 70° 31° (NNE) 06:18:19 145.800 FM
JAS-2 28 Jul 06:12:06 06:16:08 19° 88° (E) 06:19:55 435.800 - 435.900 CW/SSB, 435.910 FM
STRAND 1 28 Jul 06:19:32 06:24:21 42° 69° (ENE) 06:29:11 ?
JAS-1B 28 Jul 06:50:16 06:53:58 13° 320° (NW) 06:57:32 435.800 - 435.900 CW/SSB
KITSAT 1 28 Jul 07:05:34 07:13:40 86° 120° (ESE) 07:21:49 435.175 FM
Hamsat 28 Jul 07:10:38 07:14:58 90° 104° (ESE) 07:19:18 145.90 MHz
MaSat-1 28 Jul 07:13:10 07:18:32 85° 63° (ENE) 07:23:37 437.345 MHz
AO-7 28 Jul 07:37:19 07:43:44 26° 308° (NW) 07:50:09 29.400 - 29.500 MHz
ISS 28 Jul 07:49:12 07:51:20 16° 228° (SW) 07:53:28 145.800 FM
Saudisat 1A 28 Jul 07:54:40 07:58:51 44° 118° (ESE) 08:03:05 436.775 MHz
JAS-2 28 Jul 07:55:54 08:01:54 61° 289° (WNW) 08:07:14 435.800 - 435.900 CW/SSB, 435.910 FM
STRAND 1 28 Jul 07:59:30 08:03:41 25° 266° (W) 08:07:53 ?
SO-67 28 Jul 08:17:55 08:21:25 89° 98° (E) 08:24:53 435.3500 MHz FM
Sapphire 28 Jul 08:20:47 08:23:11 13° 34° (NE) 08:25:33 437.095 MHz 1200 baud AX-25 AFSK
MaSat-1 28 Jul 08:52:40 08:55:04 13° 261° (W) 08:57:25 437.345 MHz
PCSat 28 Jul 08:53:20 08:57:25 21° 42° (NE) 09:01:27 145.825 MHz
KITSAT 1 28 Jul 09:03:18 09:10:05 28° 323° (NW) 09:16:54 435.175 FM
UKube-1 28 Jul 09:22:29 09:25:10 16° 92° (E) 09:27:50 145.840 MHz, 145.915 MHz
HO-68 28 Jul 09:24:03 09:30:24 34° 96° (E) 09:36:43 435.675 MHz FM
Saudisat 1A 28 Jul 09:34:57 09:38:37 25° 316° (NW) 09:42:19 436.775 MHz
Sapphire 28 Jul 10:02:28 10:07:50 57° 56° (NE) 10:13:09 437.095 MHz 1200 baud AX-25 AFSK
Oscar 11 28 Jul 10:07:49 10:11:28 26° 95° (E) 10:15:06 145.825 FM, Beacon 2401.500 USB
FUNcube-1 28 Jul 10:27:40 10:30:08 15° 92° (E) 10:32:35 145.950 - 145.970 MHz USB
PCSat 28 Jul 10:35:59 10:41:25 75° 242° (WSW) 10:46:49 145.825 MHz
UKube-1 28 Jul 10:57:26 11:01:39 49° 289° (WNW) 11:05:50 145.840 MHz, 145.915 MHz
KITSAT 1 28 Jul 11:05:00 11:08:48 14° 352° (N) 11:12:37 435.175 FM
HO-68 28 Jul 11:11:28 11:18:17 50° 294° (WNW) 11:25:05 435.675 MHz FM
RS-15 28 Jul 11:36:33 11:37:02 10° 93° (E) 11:37:32 29.354 - 29.394 USB, Beacon 29.352 USB
Oscar 11 28 Jul 11:43:52 11:47:38 30° 291° (WNW) 11:51:24 145.825 FM, Beacon 2401.500 USB
Sapphire 28 Jul 11:46:47 11:50:49 22° 253° (WSW) 11:54:50 437.095 MHz 1200 baud AX-25 AFSK
FUNcube-1 28 Jul 12:02:47 12:06:47 46° 288° (WNW) 12:10:49 145.950 - 145.970 MHz USB
JAS-1B 28 Jul 12:07:09 12:10:33 12° 40° (NE) 12:14:01 435.800 - 435.900 CW/SSB
SO-50 28 Jul 12:27:09 12:30:58 28° 114° (ESE) 12:34:51 436.795 FM
Uribyol 2 28 Jul 12:32:51 12:33:34 10° 55° (NE) 12:34:17 436.500 FM
Oscar 19 28 Jul 13:00:19 13:04:54 35° 67° (ENE) 13:09:30 437.125 CW, 437.150 USB
KITSAT 1 28 Jul 13:02:56 13:08:13 18° 23° (NNE) 13:13:28 435.175 FM
HO-68 28 Jul 13:03:19 13:04:20 10° 315° (NW) 13:05:20 435.675 MHz FM
AO-Echo 28 Jul 13:22:24 13:26:52 28° 65° (ENE) 13:31:21 ?
Oscar 16 28 Jul 13:28:00 13:33:03 65° 73° (ENE) 13:38:08 437.025 USB, Beacon 2401.1428
RS-15 28 Jul 13:36:01 13:46:47 58° 114° (ESE) 13:57:20 29.354 - 29.394 USB, Beacon 29.352 USB
ITAMSAT 1 28 Jul 13:47:34 13:52:31 45° 69° (ENE) 13:57:28 435.822 SSB
JAS-1B 28 Jul 13:50:01 13:58:23 44° 62° (ENE) 14:07:29 435.800 - 435.900 CW/SSB
TMSAT-1 28 Jul 14:02:45 14:06:32 20° 62° (ENE) 14:10:20 436.925 FM
AO-27 28 Jul 14:06:19 14:11:30 68° 73° (ENE) 14:16:42 436.795 MHz FM
Uribyol 2 28 Jul 14:06:56 14:12:06 71° 73° (ENE) 14:17:17 436.500 FM
SO-50 28 Jul 14:07:16 14:11:24 36° 313° (NW) 14:15:38 436.795 FM
Gurwin Techsat 1B 28 Jul 14:25:15 14:30:12 42° 69° (ENE) 14:35:11 435.225 FM
UOSAT-12 28 Jul 14:31:23 14:35:36 37° 116° (ESE) 14:39:55 437.025 FM, 437.400 FM
Oscar 19 28 Jul 14:39:48 14:44:15 30° 264° (W) 14:48:44 437.125 CW, 437.150 USB
AO-7 28 Jul 14:52:38 14:59:26 29° 54° (NE) 15:06:14 29.400 - 29.500 MHz
KITSAT 1 28 Jul 14:57:57 15:05:48 51° 49° (NE) 15:13:35 435.175 FM
AO-Echo 28 Jul 15:00:28 15:05:26 41° 263° (W) 15:10:27 ?
Oscar 16 28 Jul 15:09:49 15:12:52 16° 270° (W) 15:15:55 437.025 USB, Beacon 2401.1428
Uosat F 28 Jul 15:19:29 15:23:24 23° 64° (ENE) 15:27:21 435.120 FM
ITAMSAT 1 28 Jul 15:28:03 15:32:12 24° 266° (W) 15:36:21 435.822 SSB
JAS-1B 28 Jul 15:40:00 15:48:35 53° 263° (W) 15:58:10 435.800 - 435.900 CW/SSB
TMSAT-1 28 Jul 15:40:48 15:46:01 58° 259° (W) 15:51:16 436.925 FM
AO-27 28 Jul 15:48:26 15:51:30 16° 270° (W) 15:54:34 436.795 MHz FM
RS-15 28 Jul 15:48:52 15:59:25 48° 318° (NW) 16:09:55 29.354 - 29.394 USB, Beacon 29.352 USB
Uribyol 2 28 Jul 15:49:16 15:52:06 15° 270° (W) 15:54:56 436.500 FM
Gurwin Techsat 1B 28 Jul 16:05:54 16:10:18 26° 266° (W) 16:14:44 435.225 FM
OPAL 28 Jul 16:07:51 16:11:17 18° 94° (E) 16:14:44 ?
UOSAT-12 28 Jul 16:11:42 16:15:48 31° 315° (NW) 16:20:00 437.025 FM, 437.400 FM
Saudisat 1A 28 Jul 16:20:26 16:24:43 47° 51° (NE) 16:28:58 436.775 MHz
JAS-2 28 Jul 16:25:56 16:29:53 15° 54° (NE) 16:33:42 435.800 - 435.900 CW/SSB, 435.910 FM
AO-7 28 Jul 16:43:10 16:51:31 73° 254° (WSW) 16:59:55 29.400 - 29.500 MHz
KITSAT 1 28 Jul 16:53:39 17:01:03 41° 250° (WSW) 17:08:26 435.175 FM
Uosat F 28 Jul 16:57:04 17:01:54 46° 261° (W) 17:06:46 435.120 FM
OPAL 28 Jul 17:45:32 17:50:30 58° 290° (WNW) 17:55:31 ?
Saudisat 1A 28 Jul 18:00:46 18:03:59 20° 248° (WSW) 18:07:10 436.775 MHz
Hamsat 28 Jul 18:04:49 18:08:58 71° 75° (ENE) 18:13:09 145.90 MHz
JAS-2 28 Jul 18:06:02 18:13:46 68° 72° (ENE) 18:21:00 435.800 - 435.900 CW/SSB, 435.910 FM
RS-15 28 Jul 18:06:59 18:15:22 24° 351° (N) 18:23:49 29.354 - 29.394 USB, Beacon 29.352 USB
STRAND 1 28 Jul 18:31:06 18:33:16 13° 89° (E) 18:35:25 ?
AO-7 28 Jul 18:41:46 18:45:40 14° 273° (W) 18:49:36 29.400 - 29.500 MHz
SO-67 28 Jul 18:52:07 18:55:14 32° 72° (ENE) 18:58:22 435.3500 MHz FM
JAS-2 28 Jul 19:52:50 19:59:09 27° 268° (W) 20:05:13 435.800 - 435.900 CW/SSB, 435.910 FM
HO-68 28 Jul 19:54:09 20:00:06 30° 59° (ENE) 20:06:04 435.675 MHz FM
STRAND 1 28 Jul 20:07:56 20:13:03 79° 286° (WNW) 20:18:08 ?
UKube-1 28 Jul 20:19:16 20:22:07 17° 63° (ENE) 20:24:58 145.840 MHz, 145.915 MHz
RS-15 28 Jul 20:23:07 20:32:30 31° 26° (NNE) 20:42:02 29.354 - 29.394 USB, Beacon 29.352 USB
SO-67 28 Jul 20:26:23 20:28:25 15° 268° (W) 20:30:28 435.3500 MHz FM
SO-50 28 Jul 20:57:10 21:01:35 38° 48° (NE) 21:06:04 436.795 FM
Oscar 11 28 Jul 21:04:08 21:07:34 24° 67° (ENE) 21:11:01 145.825 FM, Beacon 2401.500 USB
MaSat-1 28 Jul 21:05:54 21:09:25 29° 105° (ESE) 21:13:26 437.345 MHz
UOSAT-12 28 Jul 21:22:08 21:22:59 10° 28° (NNE) 21:23:50 437.025 FM, 437.400 FM
FUNcube-1 28 Jul 21:25:40 21:28:11 16° 64° (ENE) 21:30:41 145.950 - 145.970 MHz USB
HO-68 28 Jul 21:40:18 21:47:22 60° 258° (WSW) 21:54:28 435.675 MHz FM
STRAND 1 28 Jul 21:49:54 21:51:23 11° 304° (NW) 21:52:52 ?
UKube-1 28 Jul 21:53:42 21:57:56 49° 260° (W) 22:02:12 145.840 MHz, 145.915 MHz
RS-15 28 Jul 22:35:50 22:46:55 78° 54° (NE) 22:58:22 29.354 - 29.394 USB, Beacon 29.352 USB
SO-50 28 Jul 22:37:55 22:42:04 30° 245° (WSW) 22:46:15 436.795 FM
Oscar 11 28 Jul 22:39:44 22:43:36 32° 263° (W) 22:47:29 145.825 FM, Beacon 2401.500 USB
MaSat-1 28 Jul 22:42:54 22:46:41 31° 308° (NW) 22:50:58 437.345 MHz
ISS 28 Jul 22:56:14 22:57:52 13° 131° (SE) 22:59:30 145.800 FM
UOSAT-12 28 Jul 22:59:49 23:04:23 44° 49° (NE) 23:08:52 437.025 FM, 437.400 FM
FUNcube-1 28 Jul 22:59:58 23:04:12 52° 260° (W) 23:08:22 145.950 - 145.970 MHz USB
PCSat 28 Jul 23:39:29 23:41:12 12° 102° (ESE) 23:42:56 145.825 MHz
ISS 29 Jul 00:30:48 00:34:08 82° 326° (NW) 00:37:31 145.800 FM
UOSAT-12 29 Jul 00:40:28 00:44:17 25° 247° (WSW) 00:48:03 437.025 FM, 437.400 FM
Sapphire 29 Jul 00:45:20 00:50:23 42° 113° (ESE) 00:55:29 437.095 MHz 1200 baud AX-25 AFSK
RS-15 29 Jul 00:49:12 00:58:13 30° 256° (WSW) 01:07:33 29.354 - 29.394 USB, Beacon 29.352 USB
Oscar 19 29 Jul 01:13:27 01:14:38 11° 87° (E) 01:15:48 437.125 CW, 437.150 USB
PCSat 29 Jul 01:18:20 01:23:44 85° 119° (ESE) 01:29:12 145.825 MHz
Oscar 16 29 Jul 01:39:31 01:43:24 21° 93° (E) 01:47:17 437.025 USB, Beacon 2401.1428
JAS-1B 29 Jul 01:40:00 01:42:01 11° 76° (ENE) 01:43:59 435.800 - 435.900 CW/SSB
ITAMSAT 1 29 Jul 02:01:01 02:03:47 14° 90° (E) 02:06:33 435.822 SSB
ISS 29 Jul 02:08:29 02:11:15 23° 346° (NNW) 02:14:01 145.800 FM
AO-27 29 Jul 02:19:14 02:23:14 22° 93° (E) 02:27:13 436.795 MHz FM
Uribyol 2 29 Jul 02:19:28 02:23:33 23° 94° (E) 02:27:36 436.500 FM
Sapphire 29 Jul 02:29:07 02:33:56 32° 311° (NW) 02:38:46 437.095 MHz 1200 baud AX-25 AFSK
Gurwin Techsat 1B 29 Jul 02:41:46 02:44:48 15° 90° (E) 02:47:48 435.225 FM
Oscar 19 29 Jul 02:49:28 02:54:40 89° 104° (ESE) 02:59:52 437.125 CW, 437.150 USB
PCSat 29 Jul 03:04:05 03:07:52 19° 319° (NW) 03:11:41 145.825 MHz
AO-Echo 29 Jul 03:06:43 03:11:48 64° 101° (E) 03:16:39 ?
Oscar 16 29 Jul 03:18:03 03:23:01 49° 290° (WNW) 03:27:58 437.025 USB, Beacon 2401.1428
OPAL 29 Jul 03:23:23 03:27:52 36° 66° (ENE) 03:32:23 ?
JAS-1B 29 Jul 03:25:30 03:34:50 59° 99° (E) 03:42:46 435.800 - 435.900 CW/SSB
